1974,1,1,0,2530
1974,1,1,1,2667
1974,1,1,2,2667
1974,1,1,3,2499
1974,1,1,4,2271
1974,1,1,5,1981
1974,1,1,6,1725
1974,1,1,7,1524
1974,1,1,8,1524
1974,1,1,9,1631
1974,1,1,10,1829
1974,1,1,11,2134
1974,1,1,12,2347
1974,1,1,13,2499
1974,1,1,14,2469
1974,1,1,15,2362
1974,1,1,16,2118
1974,1,1,17,1829
1974,1,1,18,1570
1974,1,1,19,1402
1974,1,1,20,1402
1974,1,1,21,1509
1974,1,1,22,1725
1974,1,1,23,2027
1974,1,2,0,2347
1974,1,2,1,2591
1974,1,2,2,2682
1974,1,2,3,2682
1974,1,2,4,2438
1974,1,2,5,2210
1974,1,2,6,1935
1974,1,2,7,1692
1974,1,2,8,1585
1974,1,2,9,1539
1974,1,2,10,1692
1974,1,2,11,1920
1974,1,2,12,2195
1974,1,2,13,2377
1974,1,2,14,2469
1974,1,2,15,2438
1974,1,2,16,2271
1974,1,2,17,2057
1974,1,2,18,1768
1974,1,2,19,1570
1974,1,2,20,1448
1974,1,2,21,1463
1974,1,2,22,1600
1974,1,2,23,1859
1974,1,3,0,2164
1974,1,3,1,2469
1974,1,3,2,2652
1974,1,3,3,2743
1974,1,3,4,2667
1974,1,3,5,2499
1974,1,3,6,2210
1974,1,3,7,1951
1974,1,3,8,1676
1974,1,3,9,1585
1974,1,3,10,1585
1974,1,3,11,1692
1974,1,3,12,1951
1974,1,3,13,2164
1974,1,3,14,2347
1974,1,3,15,2438
1974,1,3,16,2393
1974,1,3,17,2256
1974,1,3,18,2027
1974,1,3,19,1768
1974,1,3,20,1615
1974,1,3,21,1509
1974,1,3,22,1539
1974,1,3,23,1692
1974,1,4,0,1966
1974,1,4,1,2240
1974,1,4,2,2560
1974,1,4,3,2713
1974,1,4,4,2774
1974,1,4,5,2682
1974,1,4,6,2484
1974,1,4,7,2210
1974,1,4,8,1920
1974,1,4,9,1691
1974,1,4,10,1570
1974,1,4,11,1585
1974,1,4,12,1725
1974,1,4,13,1920
1974,1,4,14,2164
1974,1,4,15,2347
1974,1,4,16,2408
1974,1,4,17,2347
1974,1,4,18,2225
1974,1,4,19,1981
1974,1,4,20,1768
1974,1,4,21,1585
1974,1,4,22,1463
1974,1,4,23,1524
1974,1,5,0,1676
1974,1,5,1,1966
1974,1,5,2,2271
1974,1,5,3,2560
1974,1,5,4,2743
1974,1,5,5,2835
1974,1,5,6,2713
1974,1,5,7,2469
1974,1,5,8,2179
1974,1,5,9,1875
1974,1,5,10,1646
1974,1,5,11,1494
1974,1,5,12,1524
1974,1,5,13,1646
1974,1,5,14,1890
1974,1,5,15,2103
1974,1,5,16,2316
1974,1,5,17,2408
1974,1,5,18,2347
1974,1,5,19,2210
1974,1,5,20,2012
1974,1,5,21,1725
1974,1,5,22,1524
1974,1,5,23,1433
1974,1,6,0,1463
1974,1,6,1,1676
1974,1,6,2,1951
1974,1,6,3,2332
1974,1,6,4,2606
1974,1,6,5,2850
1974,1,6,6,2850
1974,1,6,7,2774
1974,1,6,8,2499
1974,1,6,9,2195
1974,1,6,10,1859
1974,1,6,11,1570
1974,1,6,12,1463
1974,1,6,13,1463
1974,1,6,14,1600
1974,1,6,15,1859
1974,1,6,16,2134
1974,1,6,17,2377
1974,1,6,18,2499
1974,1,6,19,2484
1974,1,6,20,2347
1974,1,6,21,2073
1974,1,6,22,1783
1974,1,6,23,1554
1974,1,7,0,1417
1974,1,7,1,1463
1974,1,7,2,1631
1974,1,7,3,1981
1974,1,7,4,2332
1974,1,7,5,2682
1974,1,7,6,2926
1974,1,7,7,2972
1974,1,7,8,2896
1974,1,7,9,2560
1974,1,7,10,2256
1974,1,7,11,1829
1974,1,7,12,1539
1974,1,7,13,1402
1974,1,7,14,1356
1974,1,7,15,1554
1974,1,7,16,1829
1974,1,7,17,2164
1974,1,7,18,2438
1974,1,7,19,2560
1974,1,7,20,2560
1974,1,7,21,2377
1974,1,7,22,2118
1974,1,7,23,1753
1974,1,8,0,1494
1974,1,8,1,1341
1974,1,8,2,1341
1974,1,8,3,1585
1974,1,8,4,1905
1974,1,8,5,2347
1974,1,8,6,2713
1974,1,8,7,2987
1974,1,8,8,3018
1974,1,8,9,2926
1974,1,8,10,2591
1974,1,8,11,2195
1974,1,8,12,1768
1974,1,8,13,1433
1974,1,8,14,1250
1974,1,8,15,1250
1974,1,8,16,1478
1974,1,8,17,1829
1974,1,8,18,2210
1974,1,8,19,2499
1974,1,8,20,2682
1974,1,8,21,2652
1974,1,8,22,2454
1974,1,8,23,2134
1974,1,9,0,1737
1974,1,9,1,1417
1974,1,9,2,1250
1974,1,9,3,1280
1974,1,9,4,1494
1974,1,9,5,1890
1974,1,9,6,2316
1974,1,9,7,2743
1974,1,9,8,3002
1974,1,9,9,3048
1974,1,9,10,2926
1974,1,9,11,2576
1974,1,9,12,2103
1974,1,9,13,1631
1974,1,9,14,1311
1974,1,9,15,1158
1974,1,9,16,1173
1974,1,9,17,1433
1974,1,9,18,1844
1974,1,9,19,2256
1974,1,9,20,2652
1974,1,9,21,2804
1974,1,9,22,2804
1974,1,9,23,2560
1974,1,10,0,2210
1974,1,10,1,1768
1974,1,10,2,1402
1974,1,10,3,1219
1974,1,10,4,1219
1974,1,10,5,1494
1974,1,10,6,1890
1974,1,10,7,2316
1974,1,10,8,2804
1974,1,10,9,3018
1974,1,10,10,3094
1974,1,10,11,2941
1974,1,10,12,2530
1974,1,10,13,2057
1974,1,10,14,1554
1974,1,10,15,1204
1974,1,10,16,1097
1974,1,10,17,1189
1974,1,10,18,1494
1974,1,10,19,1920
1974,1,10,20,2408
1974,1,10,21,2758
1974,1,10,22,2957
1974,1,10,23,2896
1974,1,11,0,2621
1974,1,11,1,2210
1974,1,11,2,1725
1974,1,11,3,1387
1974,1,11,4,1173
1974,1,11,5,1219
1974,1,11,6,1494
1974,1,11,7,1905
1974,1,11,8,2362
1974,1,11,9,2789
1974,1,11,10,3033
1974,1,11,11,3048
1974,1,11,12,2819
1974,1,11,13,2423
1974,1,11,14,1905
1974,1,11,15,1433
1974,1,11,16,1128
1974,1,11,17,1082
1974,1,11,18,1173
1974,1,11,19,1554
1974,1,11,20,2027
1974,1,11,21,2515
1974,1,11,22,2896
1974,1,11,23,3048
1974,1,12,0,2972
1974,1,12,1,2606
1974,1,12,2,2164
1974,1,12,3,1725
1974,1,12,4,1402
1974,1,12,5,1189
1974,1,12,6,1250
1974,1,12,7,1524
1974,1,12,8,1966
1974,1,12,9,2393
1974,1,12,10,2804
1974,1,12,11,2987
1974,1,12,12,2957
1974,1,12,13,2713
1974,1,12,14,2286
1974,1,12,15,1783
1974,1,12,16,1311
1974,1,12,17,1082
1974,1,12,18,1082
1974,1,12,19,1234
1974,1,12,20,1600
1974,1,12,21,2149
1974,1,12,22,2606
1974,1,12,23,2941
1974,1,13,0,3048
1974,1,13,1,2926
1974,1,13,2,2591
1974,1,13,3,2134
1974,1,13,4,1676
1974,1,13,5,1341
1974,1,13,6,1219
1974,1,13,7,1295
1974,1,13,8,1585
1974,1,13,9,1981
1974,1,13,10,2438
1974,1,13,11,2743
1974,1,13,12,2911
1974,1,13,13,2850
1974,1,13,14,2560
1974,1,13,15,2134
1974,1,13,16,1646
1974,1,13,17,1280
1974,1,13,18,1097
1974,1,13,19,1128
1974,1,13,20,1356
1974,1,13,21,1798
1974,1,13,22,2225
1974,1,13,23,2682
1974,1,14,0,2926
1974,1,14,1,2972
1974,1,14,2,2819
1974,1,14,3,2484
1974,1,14,4,2057
1974,1,14,5,1646
1974,1,14,6,1372
1974,1,14,7,1280
1974,1,14,8,1326
1974,1,14,9,1661
1974,1,14,10,2027
1974,1,14,11,2408
1974,1,14,12,2682
1974,1,14,13,2819
1974,1,14,14,2713
1974,1,14,15,2408
1974,1,14,16,2027
1974,1,14,17,1585
1974,1,14,18,1280
1974,1,14,19,1173
1974,1,14,20,1250
1974,1,14,21,1524
1974,1,14,22,1890
1974,1,14,23,2347
1974,1,15,0,2713
1974,1,15,1,2987
1974,1,15,2,2957
1974,1,15,3,2850
1974,1,15,4,2484
1974,1,15,5,2103
1974,1,15,6,1725
1974,1,15,7,1463
1974,1,15,8,1372
1974,1,15,9,1478
1974,1,15,10,1725
1974,1,15,11,2118
1974,1,15,12,2438
1974,1,15,13,2652
1974,1,15,14,2743
1974,1,15,15,2606
1974,1,15,16,2316
1974,1,15,17,1951
1974,1,15,18,1676
1974,1,15,19,1448
1974,1,15,20,1338
1974,1,15,21,1411
1974,1,15,22,1657
1974,1,15,23,2015
1974,1,16,0,2400
1974,1,16,1,2720
1974,1,16,2,2894
1974,1,16,3,2885
1974,1,16,4,2698
1974,1,16,5,2383
1974,1,16,6,2012
1974,1,16,7,1672
1974,1,16,8,1441
1974,1,16,9,1368
1974,1,16,10,1462
1974,1,16,11,1688
1974,1,16,12,1979
1974,1,16,13,2255
1974,1,16,14,2438
1974,1,16,15,2499
1974,1,16,16,2393
1974,1,16,17,2179
1974,1,16,18,1920
1974,1,16,19,1676
1974,1,16,20,1478
1974,1,16,21,1417
1974,1,16,22,1524
1974,1,16,23,1725
1974,1,17,0,2042
1974,1,17,1,2377
1974,1,17,2,2652
1974,1,17,3,2804
1974,1,17,4,2789
1974,1,17,5,2652
1974,1,17,6,2377
1974,1,17,7,2042
1974,1,17,8,1783
1974,1,17,9,1570
1974,1,17,10,1554
1974,1,17,11,1615
1974,1,17,12,1844
1974,1,17,13,2042
1974,1,17,14,2316
1974,1,17,15,2438
1974,1,17,16,2499
1974,1,17,17,2377
1974,1,17,18,2195
1974,1,17,19,1951
1974,1,17,20,1707
1974,1,17,21,1554
1974,1,17,22,1524
1974,1,17,23,1615
1974,1,18,0,1783
1974,1,18,1,2073
1974,1,18,2,2347
1974,1,18,3,2606
1974,1,18,4,2743
1974,1,18,5,2682
1974,1,18,6,2560
1974,1,18,7,2301
1974,1,18,8,2042
1974,1,18,9,1768
1974,1,18,10,1615
1974,1,18,11,1585
1974,1,18,12,1661
1974,1,18,13,1798
1974,1,18,14,2042
1974,1,18,15,2225
1974,1,18,16,2347
1974,1,18,17,2362
1974,1,18,18,2332
1974,1,18,19,2134
1974,1,18,20,1951
1974,1,18,21,1725
1974,1,18,22,1600
1974,1,18,23,1570
1974,1,19,0,1661
1974,1,19,1,1829
1974,1,19,2,2073
1974,1,19,3,2362
1974,1,19,4,2576
1974,1,19,5,2652
1974,1,19,6,2667
1974,1,19,7,2469
1974,1,19,8,2256
1974,1,19,9,1981
1974,1,19,10,1768
1974,1,19,11,1615
1974,1,19,12,1554
1974,1,19,13,1646
1974,1,19,14,1768
1974,1,19,15,1981
1974,1,19,16,2149
1974,1,19,17,2286
1974,1,19,18,2347
1974,1,19,19,2271
1974,1,19,20,2164
1974,1,19,21,1951
1974,1,19,22,1783
1974,1,19,23,1615
1974,1,20,0,1570
1974,1,20,1,1661
1974,1,20,2,1829
1974,1,20,3,2057
1974,1,20,4,2332
1974,1,20,5,2484
1974,1,20,6,2621
1974,1,20,7,2591
1974,1,20,8,2499
1974,1,20,9,2256
1974,1,20,10,2027
1974,1,20,11,1768
1974,1,20,12,1631
1974,1,20,13,1554
1974,1,20,14,1615
1974,1,20,15,1768
1974,1,20,16,1966
1974,1,20,17,2179
1974,1,20,18,2301
1974,1,20,19,2362
1974,1,20,20,2286
1974,1,20,21,2134
1974,1,20,22,1920
1974,1,20,23,1725
1974,1,21,0,1585
1974,1,21,1,1585
1974,1,21,2,1646
1974,1,21,3,1875
1974,1,21,4,2134
1974,1,21,5,2393
1974,1,21,6,2576
1974,1,21,7,2667
1974,1,21,8,2606
1974,1,21,9,2438
1974,1,21,10,2195
1974,1,21,11,1920
1974,1,21,12,1692
1974,1,21,13,1554
1974,1,21,14,1524
1974,1,21,15,1600
1974,1,21,16,1829
1974,1,21,17,2012
1974,1,21,18,2256
1974,1,21,19,2362
1974,1,21,20,2408
1974,1,21,21,2301
1974,1,21,22,2149
1974,1,21,23,1920
1974,1,22,0,1725
1974,1,22,1,1615
1974,1,22,2,1585
1974,1,22,3,1725
1974,1,22,4,1890
1974,1,22,5,2195
1974,1,22,6,2438
1974,1,22,7,2621
1974,1,22,8,2667
1974,1,22,9,2621
1974,1,22,10,2423
1974,1,22,11,2134
1974,1,22,12,1875
1974,1,22,13,1646
1974,1,22,14,1494
1974,1,22,15,1539
1974,1,22,16,1646
1974,1,22,17,1905
1974,1,22,18,2164
1974,1,22,19,2347
1974,1,22,20,2469
1974,1,22,21,2454
1974,1,22,22,2316
1974,1,22,23,2103
1974,1,23,0,1844
1974,1,23,1,1661
1974,1,23,2,1524
1974,1,23,3,-32767
1974,1,23,4,-32767
1974,1,23,5,-32767
1974,1,23,6,-32767
1974,1,23,7,-32767
1974,1,23,8,-32767
1974,1,23,9,-32767
1974,1,23,10,-32767
1974,1,23,11,-32767
1974,1,23,12,-32767
1974,1,23,13,-32767
1974,1,23,14,-32767
1974,1,23,15,-32767
1974,1,23,16,-32767
1974,1,23,17,-32767
1974,1,23,18,-32767
1974,1,23,19,-32767
1974,1,23,20,-32767
1974,1,23,21,-32767
1974,1,23,22,-32767
1974,1,23,23,-32767
1974,1,24,0,-32767
1974,1,24,1,-32767
1974,1,24,2,-32767
1974,1,24,3,-32767
1974,1,24,4,-32767
1974,1,24,5,-32767
1974,1,24,6,-32767
1974,1,24,7,-32767
1974,1,24,8,-32767
1974,1,24,9,-32767
1974,1,24,10,-32767
1974,1,24,11,-32767
1974,1,24,12,-32767
1974,1,24,13,-32767
1974,1,24,14,-32767
1974,1,24,15,-32767
1974,1,24,16,-32767
1974,1,24,17,-32767
1974,1,24,18,-32767
1974,1,24,19,-32767
1974,1,24,20,-32767
1974,1,24,21,-32767
1974,1,24,22,-32767
1974,1,24,23,-32767
1974,1,25,0,-32767
1974,1,25,1,-32767
1974,1,25,2,-32767
1974,1,25,3,-32767
1974,1,25,4,-32767
1974,1,25,5,-32767
1974,1,25,6,-32767
1974,1,25,7,-32767
1974,1,25,8,-32767
1974,1,25,9,-32767
1974,1,25,10,-32767
1974,1,25,11,-32767
1974,1,25,12,-32767
1974,1,25,13,-32767
1974,1,25,14,-32767
1974,1,25,15,-32767
1974,1,25,16,-32767
1974,1,25,17,-32767
1974,1,25,18,-32767
1974,1,25,19,-32767
1974,1,25,20,-32767
1974,1,25,21,-32767
1974,1,25,22,-32767
1974,1,25,23,-32767
1974,1,26,0,-32767
1974,1,26,1,-32767
1974,1,26,2,-32767
1974,1,26,3,-32767
1974,1,26,4,-32767
1974,1,26,5,-32767
1974,1,26,6,-32767
1974,1,26,7,-32767
1974,1,26,8,-32767
1974,1,26,9,-32767
1974,1,26,10,-32767
1974,1,26,11,-32767
1974,1,26,12,-32767
1974,1,26,13,-32767
1974,1,26,14,-32767
1974,1,26,15,-32767
1974,1,26,16,-32767
1974,1,26,17,-32767
1974,1,26,18,-32767
1974,1,26,19,-32767
1974,1,26,20,-32767
1974,1,26,21,-32767
1974,1,26,22,-32767
1974,1,26,23,-32767
1974,1,27,0,-32767
1974,1,27,1,-32767
1974,1,27,2,-32767
1974,1,27,3,-32767
1974,1,27,4,-32767
1974,1,27,5,-32767
1974,1,27,6,-32767
1974,1,27,7,-32767
1974,1,27,8,-32767
1974,1,27,9,-32767
1974,1,27,10,-32767
1974,1,27,11,-32767
1974,1,27,12,-32767
1974,1,27,13,-32767
1974,1,27,14,-32767
1974,1,27,15,-32767
1974,1,27,16,-32767
1974,1,27,17,-32767
1974,1,27,18,-32767
1974,1,27,19,-32767
1974,1,27,20,-32767
1974,1,27,21,-32767
1974,1,27,22,-32767
1974,1,27,23,-32767
1974,1,28,0,-32767
1974,1,28,1,-32767
1974,1,28,2,-32767
1974,1,28,3,-32767
1974,1,28,4,-32767
1974,1,28,5,-32767
1974,1,28,6,-32767
1974,1,28,7,-32767
1974,1,28,8,-32767
1974,1,28,9,-32767
1974,1,28,10,-32767
1974,1,28,11,-32767
1974,1,28,12,-32767
1974,1,28,13,-32767
1974,1,28,14,-32767
1974,1,28,15,-32767
1974,1,28,16,-32767
1974,1,28,17,-32767
1974,1,28,18,-32767
1974,1,28,19,-32767
1974,1,28,20,-32767
1974,1,28,21,-32767
1974,1,28,22,-32767
1974,1,28,23,-32767
1974,1,29,0,-32767
1974,1,29,1,-32767
1974,1,29,2,-32767
1974,1,29,3,-32767
1974,1,29,4,-32767
1974,1,29,5,-32767
1974,1,29,6,-32767
1974,1,29,7,-32767
1974,1,29,8,-32767
1974,1,29,9,-32767
1974,1,29,10,-32767
1974,1,29,11,-32767
1974,1,29,12,-32767
1974,1,29,13,-32767
1974,1,29,14,-32767
1974,1,29,15,-32767
1974,1,29,16,-32767
1974,1,29,17,-32767
1974,1,29,18,-32767
1974,1,29,19,-32767
1974,1,29,20,-32767
1974,1,29,21,-32767
1974,1,29,22,-32767
1974,1,29,23,-32767
1974,1,30,0,-32767
1974,1,30,1,-32767
1974,1,30,2,-32767
1974,1,30,3,-32767
1974,1,30,4,-32767
1974,1,30,5,-32767
1974,1,30,6,-32767
1974,1,30,7,-32767
1974,1,30,8,-32767
1974,1,30,9,-32767
1974,1,30,10,-32767
1974,1,30,11,-32767
1974,1,30,12,-32767
1974,1,30,13,-32767
1974,1,30,14,-32767
1974,1,30,15,-32767
1974,1,30,16,-32767
1974,1,30,17,-32767
1974,1,30,18,-32767
1974,1,30,19,-32767
1974,1,30,20,-32767
1974,1,30,21,-32767
1974,1,30,22,-32767
1974,1,30,23,-32767
1974,1,31,0,-32767
1974,1,31,1,-32767
1974,1,31,2,-32767
1974,1,31,3,-32767
1974,1,31,4,-32767
1974,1,31,5,-32767
1974,1,31,6,-32767
1974,1,31,7,-32767
1974,1,31,8,-32767
1974,1,31,9,-32767
1974,1,31,10,-32767
1974,1,31,11,-32767
1974,1,31,12,-32767
1974,1,31,13,-32767
1974,1,31,14,-32767
1974,1,31,15,-32767
1974,1,31,16,-32767
1974,1,31,17,-32767
1974,1,31,18,-32767
1974,1,31,19,-32767
1974,1,31,20,-32767
1974,1,31,21,-32767
1974,1,31,22,-32767
1974,1,31,23,-32767
1974,2,1,0,-32767
1974,2,1,1,-32767
1974,2,1,2,-32767
1974,2,1,3,-32767
1974,2,1,4,-32767
1974,2,1,5,-32767
1974,2,1,6,-32767
1974,2,1,7,-32767
1974,2,1,8,-32767
1974,2,1,9,-32767
1974,2,1,10,-32767
1974,2,1,11,-32767
1974,2,1,12,-32767
1974,2,1,13,2256
1974,2,1,14,2438
1974,2,1,15,2469
1974,2,1,16,2301
1974,2,1,17,2118
1974,2,1,18,1829
1974,2,1,19,1615
1974,2,1,20,1448
1974,2,1,21,1448
1974,2,1,22,1524
1974,2,1,23,1783
1974,2,2,0,2103
1974,2,2,1,2408
1974,2,2,2,2667
1974,2,2,3,2789
1974,2,2,4,2743
1974,2,2,5,2576
1974,2,2,6,2301
1974,2,2,7,2012
1974,2,2,8,1737
1974,2,2,9,1539
1974,2,2,10,1494
1974,2,2,11,1600
1974,2,2,12,1737
1974,2,2,13,2088
1974,2,2,14,2286
1974,2,2,15,2438
1974,2,2,16,2469
1974,2,2,17,2347
1974,2,2,18,2134
1974,2,2,19,1875
1974,2,2,20,1615
1974,2,2,21,1509
1974,2,2,22,1494
1974,2,2,23,1585
1974,2,3,0,1798
1974,2,3,1,2103
1974,2,3,2,2408
1974,2,3,3,2682
1974,2,3,4,2789
1974,2,3,5,2743
1974,2,3,6,2621
1974,2,3,7,2332
1974,2,3,8,2027
1974,2,3,9,1737
1974,2,3,10,1570
1974,2,3,11,1494
1974,2,3,12,1600
1974,2,3,13,1768
1974,2,3,14,2042
1974,2,3,15,2256
1974,2,3,16,2408
1974,2,3,17,2438
1974,2,3,18,2286
1974,2,3,19,2134
1974,2,3,20,1859
1974,2,3,21,1631
1974,2,3,22,1463
1974,2,3,23,1433
1974,2,4,0,1539
1974,2,4,1,1783
1974,2,4,2,2103
1974,2,4,3,2423
1974,2,4,4,2652
1974,2,4,5,2804
1974,2,4,6,2743
1974,2,4,7,2591
1974,2,4,8,2286
1974,2,4,9,1981
1974,2,4,10,1683
1974,2,4,11,1478
1974,2,4,12,1433
1974,2,4,13,1494
1974,2,4,14,1692
1974,2,4,15,1951
1974,2,4,16,2240
1974,2,4,17,2377
1974,2,4,18,2469
1974,2,4,19,2347
1974,2,4,20,2164
1974,2,4,21,1875
1974,2,4,22,1600
1974,2,4,23,1402
1974,2,5,0,1341
1974,2,5,1,1448
1974,2,5,2,1646
1974,2,5,3,1996
1974,2,5,4,2362
1974,2,5,5,2637
1974,2,5,6,2774
1974,2,5,7,2789
1974,2,5,8,2591
1974,2,5,9,2301
1974,2,5,10,1920
1974,2,5,11,1631
1974,2,5,12,1356
1974,2,5,13,1311
1974,2,5,14,1372
1974,2,5,15,1631
1974,2,5,16,1920
1974,2,5,17,2240
1974,2,5,18,2469
1974,2,5,19,2530
1974,2,5,20,2484
1974,2,5,21,2256
1974,2,5,22,1920
1974,2,5,23,1631
1974,2,6,0,1372
1974,2,6,1,1280
1974,2,6,2,1372
1974,2,6,3,1646
1974,2,6,4,2012
1974,2,6,5,2377
1974,2,6,6,2728
1974,2,6,7,2865
1974,2,6,8,2850
1974,2,6,9,2652
1974,2,6,10,2332
1974,2,6,11,1890
1974,2,6,12,1524
1974,2,6,13,1280
1974,2,6,14,1234
1974,2,6,15,1295
1974,2,6,16,1615
1974,2,6,17,1951
1974,2,6,18,2362
1974,2,6,19,2621
1974,2,6,20,2697
1974,2,6,21,2637
1974,2,6,22,2332
1974,2,6,23,1981
1974,2,7,0,1615
1974,2,7,1,1326
1974,2,7,2,1219
1974,2,7,3,1341
1974,2,7,4,1585
1974,2,7,5,1996
1974,2,7,6,2438
1974,2,7,7,2758
1974,2,7,8,2926
1974,2,7,9,2896
1974,2,7,10,2652
1974,2,7,11,2271
1974,2,7,12,1875
1974,2,7,13,1478
1974,2,7,14,1234
1974,2,7,15,1128
1974,2,7,16,1280
1974,2,7,17,1585
1974,2,7,18,2027
1974,2,7,19,2438
1974,2,7,20,2774
1974,2,7,21,2850
1974,2,7,22,2774
1974,2,7,23,2469
1974,2,8,0,2057
1974,2,8,1,1631
1974,2,8,2,1280
1974,2,8,3,1189
1974,2,8,4,1219
1974,2,8,5,1509
1974,2,8,6,1920
1974,2,8,7,2377
1974,2,8,8,2743
1974,2,8,9,2926
1974,2,8,10,2941
1974,2,8,11,2637
1974,2,8,12,2271
1974,2,8,13,1722
1974,2,8,14,1356
1974,2,8,15,1067
1974,2,8,16,1052
1974,2,8,17,1219
1974,2,8,18,1646
1974,2,8,19,2134
1974,2,8,20,2606
1974,2,8,21,2911
1974,2,8,22,3018
1974,2,8,23,2850
1974,2,9,0,2530
1974,2,9,1,2088
1974,2,9,2,1631
1974,2,9,3,1295
1974,2,9,4,1128
1974,2,9,5,1250
1974,2,9,6,1524
1974,2,9,7,1981
1974,2,9,8,2438
1974,2,9,9,2804
1974,2,9,10,2987
1974,2,9,11,2880
1974,2,9,12,2637
1974,2,9,13,2225
1974,2,9,14,1707
1974,2,9,15,1265
1974,2,9,16,1052
1974,2,9,17,1052
1974,2,9,18,1295
1974,2,9,19,1683
1974,2,9,20,2225
1974,2,9,21,2682
1974,2,9,22,2987
1974,2,9,23,3078
1974,2,10,0,2880
1974,2,10,1,2515
1974,2,10,2,1996
1974,2,10,3,1554
1974,2,10,4,1204
1974,2,10,5,1097
1974,2,10,6,1204
1974,2,10,7,1524
1974,2,10,8,1966
1974,2,10,9,2423
1974,2,10,10,2758
1974,2,10,11,2896
1974,2,10,12,2819
1974,2,10,13,2530
1974,2,10,14,2057
1974,2,10,15,1539
1974,2,10,16,1173
1974,2,10,17,1052
1974,2,10,18,1067
1974,2,10,19,1372
1974,2,10,20,1814
1974,2,10,21,2332
1974,2,10,22,2743
1974,2,10,23,3018
1974,2,11,0,3018
1974,2,11,1,2835
1974,2,11,2,2408
1974,2,11,3,1935
1974,2,11,4,1478
1974,2,11,5,1158
1974,2,11,6,1097
1974,2,11,7,1219
1974,2,11,8,1585
1974,2,11,9,2042
1974,2,11,10,2469
1974,2,11,11,2743
1974,2,11,12,2819
1974,2,11,13,2713
1974,2,11,14,2377
1974,2,11,15,1951
1974,2,11,16,1494
1974,2,11,17,1173
1974,2,11,18,1067
1974,2,11,19,1173
1974,2,11,20,1494
1974,2,11,21,1920
1974,2,11,22,2438
1974,2,11,23,2819
1974,2,12,0,3048
1974,2,12,1,3018
1974,2,12,2,2743
1974,2,12,3,2362
1974,2,12,4,1905
1974,2,12,5,1524
1974,2,12,6,1250
1974,2,12,7,1219
1974,2,12,8,1387
1974,2,12,9,1737
1974,2,12,10,2149
1974,2,12,11,2515
1974,2,12,12,2743
1974,2,12,13,2774
1974,2,12,14,2606
1974,2,12,15,2286
1974,2,12,16,1859
1974,2,12,17,1476
1974,2,12,18,1219
1974,2,12,19,1189
1974,2,12,20,1341
1974,2,12,21,1646
1974,2,12,22,2073
1974,2,12,23,2499
1974,2,13,0,2804
1974,2,13,1,2957
1974,2,13,2,2865
1974,2,13,3,2637
1974,2,13,4,2256
1974,2,13,5,1844
1974,2,13,6,1494
1974,2,13,7,1341
1974,2,13,8,1341
1974,2,13,9,1524
1974,2,13,10,1829
1974,2,13,11,2164
1974,2,13,12,2499
1974,2,13,13,2637
1974,2,13,14,2652
1974,2,13,15,2469
1974,2,13,16,2164
1974,2,13,17,1798
1974,2,13,18,1509
1974,2,13,19,1311
1974,2,13,20,1326
1974,2,13,21,1494
1974,2,13,22,1798
1974,2,13,23,2210
1974,2,14,0,2530
1974,2,14,1,2819
1974,2,14,2,2865
1974,2,14,3,2774
1974,2,14,4,2499
1974,2,14,5,2164
1974,2,14,6,1798
1974,2,14,7,1554
1974,2,14,8,1402
1974,2,14,9,1463
1974,2,14,10,1631
1974,2,14,11,1920
1974,2,14,12,2195
1974,2,14,13,2408
1974,2,14,14,2545
1974,2,14,15,2499
1974,2,14,16,2362
1974,2,14,17,2042
1974,2,14,18,1783
1974,2,14,19,1494
1974,2,14,20,1387
1974,2,14,21,1402
1974,2,14,22,1554
1974,2,14,23,1859
1974,2,15,0,2179
1974,2,15,1,2469
1974,2,15,2,2652
1974,2,15,3,2713
1974,2,15,4,2591
1974,2,15,5,2377
1974,2,15,6,2057
1974,2,15,7,1783
1974,2,15,8,1524
1974,2,15,9,1463
1974,2,15,10,1463
1974,2,15,11,1615
1974,2,15,12,1875
1974,2,15,13,2073
1974,2,15,14,2286
1974,2,15,15,2377
1974,2,15,16,2347
1974,2,15,17,2195
1974,2,15,18,1951
1974,2,15,19,1722
1974,2,15,20,1494
1974,2,15,21,1433
1974,2,15,22,1463
1974,2,15,23,1615
1974,2,16,0,1875
1974,2,16,1,2149
1974,2,16,2,2393
1974,2,16,3,2530
1974,2,16,4,2560
1974,2,16,5,2454
1974,2,16,6,2256
1974,2,16,7,2012
1974,2,16,8,1737
1974,2,16,9,1585
1974,2,16,10,1494
1974,2,16,11,1524
1974,2,16,12,1661
1974,2,16,13,1859
1974,2,16,14,2073
1974,2,16,15,2225
1974,2,16,16,2347
1974,2,16,17,2256
1974,2,16,18,2164
1974,2,16,19,1951
1974,2,16,20,1768
1974,2,16,21,1585
1974,2,16,22,1524
1974,2,16,23,1554
1974,2,17,0,1683
1974,2,17,1,1920
1974,2,17,2,2134
1974,2,17,3,2377
1974,2,17,4,2499
1974,2,17,5,2530
1974,2,17,6,2408
1974,2,17,7,2256
1974,2,17,8,1996
1974,2,17,9,1798
1974,2,17,10,1631
1974,2,17,11,1554
1974,2,17,12,1570
1974,2,17,13,1683
1974,2,17,14,1859
1974,2,17,15,2073
1974,2,17,16,2195
1974,2,17,17,2286
1974,2,17,18,2256
1974,2,17,19,2134
1974,2,17,20,1981
1974,2,17,21,1783
1974,2,17,22,1661
1974,2,17,23,1585
1974,2,18,0,1615
1974,2,18,1,1753
1974,2,18,2,1935
1974,2,18,3,2164
1974,2,18,4,2362
1974,2,18,5,2484
1974,2,18,6,2499
1974,2,18,7,2438
1974,2,18,8,2256
1974,2,18,9,2042
1974,2,18,10,1829
1974,2,18,11,1646
1974,2,18,12,1585
1974,2,18,13,1631
1974,2,18,14,1707
1974,2,18,15,1920
1974,2,18,16,2088
1974,2,18,17,2256
1974,2,18,18,2316
1974,2,18,19,2316
1974,2,18,20,2195
1974,2,18,21,2027
1974,2,18,22,1829
1974,2,18,23,1683
1974,2,19,0,1615
1974,2,19,1,1615
1974,2,19,2,1783
1974,2,19,3,1951
1974,2,19,4,2195
1974,2,19,5,2377
1974,2,19,6,2499
1974,2,19,7,2530
1974,2,19,8,2408
1974,2,19,9,2256
1974,2,19,10,2012
1974,2,19,11,1768
1974,2,19,12,1615
1974,2,19,13,1524
1974,2,19,14,1554
1974,2,19,15,1683
1974,2,19,16,1890
1974,2,19,17,2118
1974,2,19,18,2256
1974,2,19,19,2362
1974,2,19,20,2316
1974,2,19,21,2225
1974,2,19,22,2042
1974,2,19,23,1814
1974,2,20,0,1676
1974,2,20,1,1554
1974,2,20,2,1600
1974,2,20,3,1707
1974,2,20,4,1920
1974,2,20,5,2210
1974,2,20,6,2362
1974,2,20,7,2530
1974,2,20,8,2499
1974,2,20,9,2347
1974,2,20,10,2195
1974,2,20,11,1951
1974,2,20,12,1722
1974,2,20,13,1524
1974,2,20,14,1463
1974,2,20,15,1524
1974,2,20,16,1676
1974,2,20,17,1905
1974,2,20,18,2149
1974,2,20,19,2332
1974,2,20,20,2393
1974,2,20,21,2332
1974,2,20,22,2195
1974,2,20,23,1951
1974,2,21,0,1707
1974,2,21,1,1554
1974,2,21,2,1448
1974,2,21,3,1554
1974,2,21,4,1683
1974,2,21,5,1951
1974,2,21,6,2195
1974,2,21,7,2423
1974,2,21,8,2515
1974,2,21,9,2484
1974,2,21,10,2347
1974,2,21,11,2073
1974,2,21,12,1798
1974,2,21,13,1554
1974,2,21,14,1387
1974,2,21,15,1356
1974,2,21,16,1494
1974,2,21,17,1676
1974,2,21,18,1951
1974,2,21,19,2225
1974,2,21,20,2393
1974,2,21,21,2438
1974,2,21,22,2393
1974,2,21,23,2164
1974,2,22,0,1890
1974,2,22,1,1615
1974,2,22,2,1417
1974,2,22,3,1402
1974,2,22,4,1463
1974,2,22,5,1722
1974,2,22,6,1966
1974,2,22,7,2256
1974,2,22,8,2438
1974,2,22,9,2515
1974,2,22,10,2438
1974,2,22,11,2240
1974,2,22,12,1951
1974,2,22,13,1631
1974,2,22,14,1402
1974,2,22,15,1265
1974,2,22,16,1295
1974,2,22,17,1478
1974,2,22,18,1768
1974,2,22,19,2103
1974,2,22,20,2332
1974,2,22,21,2530
1974,2,22,22,2530
1974,2,22,23,2362
1974,2,23,0,2103
1974,2,23,1,1783
1974,2,23,2,1509
1974,2,23,3,1341
1974,2,23,4,1326
1974,2,23,5,1463
1974,2,23,6,1707
1974,2,23,7,2057
1974,2,23,8,2286
1974,2,23,9,2515
1974,2,23,10,2499
1974,2,23,11,2408
1974,2,23,12,2149
1974,2,23,13,1829
1974,2,23,14,1539
1974,2,23,15,1295
1974,2,23,16,1265
1974,2,23,17,1372
1974,2,23,18,1615
1974,2,23,19,1951
1974,2,23,20,2286
1974,2,23,21,2530
1974,2,23,22,2621
1974,2,23,23,2560
1974,2,24,0,2347
1974,2,24,1,2073
1974,2,24,2,1661
1974,2,24,3,1463
1974,2,24,4,1280
1974,2,24,5,1356
1974,2,24,6,1524
1974,2,24,7,1859
1974,2,24,8,2164
1974,2,24,9,2438
1974,2,24,10,2591
1974,2,24,11,2545
1974,2,24,12,2377
1974,2,24,13,2057
1974,2,24,14,1753
1974,2,24,15,1433
1974,2,24,16,1265
1974,2,24,17,1280
1974,2,24,18,1448
1974,2,24,19,1798
1974,2,24,20,2134
1974,2,24,21,2469
1974,2,24,22,2682
1974,2,24,23,2713
1974,2,25,0,2576
1974,2,25,1,2286
1974,2,25,2,1920
1974,2,25,3,1554
1974,2,25,4,1372
1974,2,25,5,1265
1974,2,25,6,1372
1974,2,25,7,1631
1974,2,25,8,1951
1974,2,25,9,2286
1974,2,25,10,2484
1974,2,25,11,2591
1974,2,25,12,2499
1974,2,25,13,2256
1974,2,25,14,1890
1974,2,25,15,1585
1974,2,25,16,1311
1974,2,25,17,1234
1974,2,25,18,1326
1974,2,25,19,1570
1974,2,25,20,1951
1974,2,25,21,2316
1974,2,25,22,2606
1974,2,25,23,2774
1974,2,26,0,2758
1974,2,26,1,2560
1974,2,26,2,2225
1974,2,26,3,1814
1974,2,26,4,1524
1974,2,26,5,1311
1974,2,26,6,1311
1974,2,26,7,1448
1974,2,26,8,1737
1974,2,26,9,2134
1974,2,26,10,2408
1974,2,26,11,2591
1974,2,26,12,2606
1974,2,26,13,2454
1974,2,26,14,2179
1974,2,26,15,1829
1974,2,26,16,1494
1974,2,26,17,1265
1974,2,26,18,1280